Location: Unspecified
(40.9447°N, 78.9903°W)
Time: 19:21:20
(UTC-05:00)

Hubble Space Telescope - Pass Details

Date: 23 January 2019
Orbit: 537 x 540 km, 28.5° (Epoch: 15 February)

Event Time Altitude Azimuth Distance (km) Brightness Sun altitude
Exits shadow 04:48:55 10° 148° (SSE) 1,770 3.7 -31.1°
Drops below altitude 10° 04:49:01 10° 147° (SSE) 1,792 3.8 -31.0°
Sets 04:52:06 0° 123° (ESE) 2,674 5.1 -30.5°
